Showing default

AFR-1, 56964

Orbit data source: Space-Track

AFR-1, 56964 is a payload satellite owned by Azista BST (IN) in SSO that was launched on Mon, 12 Jun 2023 UTC via an FALCON 9 launch vehicle from the Air Force Western Test Range (AFWTR). Payload-class satellites include a variety of spacecraft equipped with specific instruments for various scientific and technological missions. These include communications satellites like Starlink; space stations such as the ISS; scientific satellites like the Hubble; Earth observation satellites from companies like Planet Labs, Umbra, and HawkEye 360; GPS; miniature CubeSats for education and research; and military/defense satellites.

Loading next visibility...
Identifier
56964, 2023-084AJ
Orbit
SSO
Country
Flag of ININ / IND
Related business
Manufacturer
Azista BST
Mission
Operational Commercial Imaging
Bus & Motor
AFR, Unknown motor
Mass
80 kg wet, 80 kg dry
Launch date (UTC)
2023-06-12 (2 years ago)
Launch vehicle
FALCON 9
Launch site
Air Force Western Test Range (AFWTR)
Object type
Payload
Rocket body
Debris
Shape & HBR
Box + 1 Pan, 0.5 m
Radar Cross Section
1.100 m², Medium (>0.1 m² and < 1m²)

Expand to show TLE details & history
Last TLE update: 16 hours ago

TLE from 16 hours ago
0 AFR-1
1 56964U 23084AJ  25306.54014784  .00005809  00000-0  23058-3 0  9999
2 56964  97.5987  73.6968 0012244  60.5482 299.6975 15.25688243132630
Epoch: 2025-11-02T12:57Z
TLE epoch observation values (Epoch: 2025-11-02T12:57:48.773Z)
Latitude
-0.00009°
Longitude
-162.81082°
Altitude
487.653 km
Speed
7.624 km/s
True Right ascension
04h 54m 47s
True Declination
0° 00' 00"
Sunlit
Object was in full shadow at epoch
Visualization orbit readout
Latitude
Unknown
Longitude
Unknown
Altitude
Unknown
Speed
Unknown
Apparent Right ascension
Unknown
Apparent Declination
Unknown
Sunlit
N/A
Visualization observer readout
Local Sidereal Time
00:44:15
Azimuth
Unknown
Elevation
Unknown
Doppler factor
Unknown
Orbital elements
Apogee altitude
494.09 km
Perigee altitude
477.282 km
Semi-major axis
6,863.823 km
Eccentricity
0.00122
Inclination
97.5987°
RAAN
73.6968°
Arg. of periapsis
60.5482°
True anomaly
299.57553°
Mean anomaly
299.6975°
Eccentric anomaly
299.63652°
Mean motion
3.81675 °/min
Orbital period
94.32 mins
BSTAR
0.00023058
Loading maneuver chart data...
Computing Atmospheric mass density...
Loading historical data...
Loading historical data...
Loading historical data...
Loading historical data...
Loading historical data...
Loading historical data...
Loading historical data...

Documentation

Showing up to 5 results
|